sat.trackr.live / text

‹ back to catalog

STARLINK-4720

NORAD 53800 · 2022-111AD

PAYLOAD ACTIVE UNKNOWN

§ Identity

Operator
Country
US
Launch date
2022-09-11
Launch site
AFETR
Launch vehicle
Mass (kg)
RCS (m²)

Purposes: comms

External: N2YO · Heavens-Above · Gunter

§ Orbital elements

Epoch: 2026-05-24T15:56:41.479008Z

Period
92.43 min
Inclination
53.2074°
Eccentricity
0.0003272
Mean motion
15.57979677 rev/d
Perigee alt
391.3 km
Apogee alt
395.7 km
Semi-major
6,771.6 km
B*
4.4748e-4
RAAN
233.6966°
Arg perigee
32.7980°
Mean anomaly
327.3236°
Rev number
20,598

§ Raw data

STARLINK-47201 53800U 22111AD  26144.66436897  .00033762  00000+0  44748-3 0  99992 53800  53.2074 233.6966 0003272  32.7980 327.3236 15.57979677205980

JSON: /api/v1/satellites/53800 · /tle

For live sub-satellite position, see the globe view (requires WebGL).

§ Visibility from observer

Set your observer location to see the next 7 days of passes ≥ 10°. The values pass through the URL so the page stays shareable.

No JS? Fill the form by hand. The geolocation button needs JavaScript.